Location: Unspecified
(0.0000°N, 0.0000°E)
Time: 05:24:16
(UTC+01:00)

Cosmos 2237 Rocket - Visible Passes

Search period start: 23 December 2014 00:00
Search period end: 02 January 2015 00:00
Orbit: 837 x 849 km, 71.0° (Epoch: 22 December)

Date Brightness Start Highest point End Pass type
(mag) Time Alt. Az. Time Alt. Az. Time Alt. Az.
23 Dec 5.2 05:02:48 10° SE 05:05:48 15° ESE 05:08:47 10° ENE visible
24 Dec 5.2 04:48:21 10° SE 04:51:02 14° ESE 04:53:42 10° ENE visible
24 Dec 2.6 06:29:36 10° SW 06:34:49 40° WNW 06:40:01 10° N visible
25 Dec 5.2 04:33:56 10° SE 04:36:15 13° ESE 04:38:34 10° E visible
25 Dec 2.5 06:14:45 10° SW 06:20:03 42° WNW 06:25:19 10° N visible
26 Dec 5.2 04:19:37 10° SE 04:21:28 12° ESE 04:23:20 10° E visible
26 Dec 2.4 05:59:55 10° SSW 06:05:17 45° WNW 06:10:36 10° N visible
27 Dec 5.2 04:05:28 10° ESE 04:06:42 11° ESE 04:07:54 10° E visible
27 Dec 2.3 05:45:05 10° SSW 05:50:30 49° WNW 05:55:53 10° N visible
28 Dec 2.2 05:30:16 10° SSW 05:35:43 52° WNW 05:41:09 10° N visible
29 Dec 2.2 05:15:26 10° SSW 05:20:56 56° WNW 05:22:25 43° NNW visible
30 Dec 3.7 05:00:37 10° SSW 05:02:43 23° SSW 05:02:43 23° SSW visible
